Charlotte, MI

3:08 PM EST on January 20, 2017 (GMT -0500)
Charlotte

Weather History for KFPK - January, 2013

Change the Weather History Date:

Thursday, January 3, 2013

  Actual Average (KLAN) Record (KLAN)
Temperature  
Mean Temperature 22 °F -  
Max Temperature 30 °F 30 °F 58 °F (1950)
Min Temperature 14 °F 18 °F -16 °F (1879)
Degree Days  
Heating Degree Days 43    
Moisture  
Dew Point 20 °F    
Average Humidity 82    
Maximum Humidity 92    
Minimum Humidity 67    
Precipitation  
Precipitation 0.00 in - - ()
Sea Level Pressure  
Sea Level Pressure 30.07 in    
Wind  
Wind Speed 7 mph (SW)    
Max Wind Speed 13 mph    
Max Gust Speed 20 mph    
Visibility 7 miles    
Events Snow    
Averages and records for this station are not official NWS values.
T = Trace of Precipitation, MM = Missing Value Source: NWS Daily Summary

Daily Weather History Graph

Daily Weather History Graph

Search for Another Location

Airport or City:

Trip Planner

Search our weather history database for the weather conditions in past years. The results will help you decide how hot, cold, wet, or windy it might be!

Date:

Astronomy

Jan. 03, 2013 Rise Set
Actual Time 8:09 AM EST 5:18 PM EST
Civil Twilight 7:37 AM EST 5:50 PM EST
Nautical Twilight 7:02 AM EST 6:26 PM EST
Astronomical Twilight 6:27 AM EST 7:00 PM EST
Moon No Moon Rise 11:11 AM EST (1/3)
Length of Visible Light 10h 13m
Length of Day
9h 09m
Waning Gibbous, 65% of the Moon is Illuminated
Jan 3
Waning Gibbous
Jan 4
Last Quarter
Jan 11
New
Jan 18
First Quarter
Jan 26
Full

Hourly Weather History & Observations

Time (EST) Temp. Windchill Dew Point Humidity Pressure Visibility Wind Dir Wind Speed Gust Speed Precip Events Conditions
12:15 AM 16.0 °F 8.8 °F 14.0 °F 92% 30.10 in 10.0 mi South 4.6 mph - N/A   Clear
12:35 AM 15.8 °F 7.2 °F 13.8 °F 92% 30.10 in 10.0 mi South 5.8 mph - N/A   Clear
12:55 AM 15.4 °F 8.1 °F 13.1 °F 90% 30.10 in 10.0 mi South 4.6 mph - N/A   Clear
1:15 AM 15.1 °F 6.4 °F 12.7 °F 90% 30.09 in 10.0 mi South 5.8 mph - N/A   Clear
1:35 AM 14.9 °F 7.5 °F 12.2 °F 89% 30.09 in 10.0 mi South 4.6 mph - N/A   Clear
1:55 AM 14.5 °F 7.1 °F 11.5 °F 88% 30.09 in 10.0 mi South 4.6 mph - N/A   Scattered Clouds
2:15 AM 15.6 °F - 12.2 °F 86% 30.09 in 10.0 mi Calm Calm - N/A   Mostly Cloudy
2:35 AM 17.1 °F 8.7 °F 11.8 °F 80% 30.09 in 10.0 mi South 5.8 mph - N/A   Overcast
2:55 AM 17.6 °F 9.3 °F 10.6 °F 74% 30.09 in 10.0 mi South 5.8 mph - N/A   Overcast
3:15 AM 17.6 °F 8.2 °F 9.5 °F 71% 30.08 in 10.0 mi South 6.9 mph - N/A   Overcast
3:35 AM 18.0 °F 7.7 °F 9.3 °F 69% 30.08 in 10.0 mi South 8.1 mph - N/A   Overcast
3:55 AM 18.0 °F 7.7 °F 9.5 °F 70% 30.07 in 10.0 mi South 8.1 mph - N/A   Overcast
4:15 AM 18.0 °F 7.7 °F 8.6 °F 67% 30.06 in 10.0 mi South 8.1 mph - N/A   Overcast
4:35 AM 18.1 °F 8.9 °F 9.1 °F 68% 30.06 in 10.0 mi SSW 6.9 mph - N/A   Overcast
4:55 AM 18.1 °F 8.9 °F 9.3 °F 68% 30.05 in 10.0 mi South 6.9 mph - N/A   Overcast
5:15 AM 18.1 °F 8.9 °F 9.5 °F 69% 30.05 in 10.0 mi South 6.9 mph - N/A   Overcast
5:35 AM 18.3 °F 10.2 °F 9.5 °F 68% 30.04 in 10.0 mi South 5.8 mph - N/A   Overcast
5:55 AM 18.3 °F 9.1 °F 10.0 °F 70% 30.04 in 10.0 mi SSW 6.9 mph - N/A   Overcast
6:15 AM 18.3 °F 9.1 °F 10.2 °F 71% 30.04 in 10.0 mi SSW 6.9 mph - N/A   Overcast
6:35 AM 18.5 °F 9.3 °F 10.6 °F 71% 30.03 in 10.0 mi SSW 6.9 mph - N/A Snow Light Snow
6:55 AM 18.5 °F 8.4 °F 11.7 °F 75% 30.03 in 7.0 mi SSW 8.1 mph - N/A Snow Light Snow
7:15 AM 18.7 °F 9.5 °F 11.8 °F 75% 30.03 in 10.0 mi SSW 6.9 mph - N/A   Overcast
7:35 AM 19.4 °F 8.6 °F 12.2 °F 74% 30.03 in 10.0 mi SSW 9.2 mph - N/A   Overcast
7:55 AM 19.8 °F 9.1 °F 13.1 °F 75% 30.03 in 10.0 mi SSW 9.2 mph - N/A   Overcast
8:35 AM 20.7 °F 11.0 °F 14.4 °F 77% 30.03 in 10.0 mi SSW 8.1 mph - N/A   Overcast
8:55 AM 21.2 °F 12.6 °F 15.3 °F 78% 30.04 in 10.0 mi SW 6.9 mph - N/A   Overcast
9:15 AM 21.9 °F 12.5 °F 16.3 °F 79% 30.04 in 10.0 mi SSW 8.1 mph - N/A   Overcast
9:35 AM 22.5 °F 14.1 °F 17.4 °F 81% 30.04 in 7.0 mi SSW 6.9 mph - N/A   Overcast
9:55 AM 23.2 °F 13.3 °F 18.5 °F 82% 30.04 in 7.0 mi SSW 9.2 mph - N/A   Overcast
10:15 AM 23.9 °F 15.0 °F 19.4 °F 83% 30.05 in 7.0 mi SSW 8.1 mph - N/A   Overcast
10:35 AM 24.4 °F 15.6 °F 20.3 °F 84% 30.05 in 4.0 mi SW 8.1 mph - N/A   Overcast
10:55 AM 24.6 °F 16.7 °F 21.0 °F 86% 30.06 in 3.0 mi SW 6.9 mph - N/A   Overcast
11:15 AM 25.5 °F 16.2 °F 22.1 °F 87% 30.06 in 5.0 mi WSW 9.2 mph - N/A   Overcast
11:35 AM 26.1 °F 16.2 °F 22.8 °F 88% 30.05 in 5.0 mi SW 10.4 mph - N/A   Overcast
11:55 AM 26.6 °F 15.7 °F 23.2 °F 87% 30.04 in 5.0 mi SW 12.7 mph - N/A   Overcast
12:15 PM 26.6 °F 17.5 °F 23.4 °F 88% 30.03 in 5.0 mi SW 9.2 mph - N/A   Overcast
12:35 PM 27.1 °F 17.5 °F 23.9 °F 88% 30.03 in 5.0 mi SW 10.4 mph - N/A   Overcast
12:55 PM 27.5 °F 18.6 °F 24.4 °F 88% 30.03 in 5.0 mi SW 9.2 mph - N/A   Overcast
1:15 PM 27.5 °F 19.3 °F 24.8 °F 90% 30.03 in 5.0 mi WSW 8.1 mph - N/A   Overcast
1:35 PM 28.0 °F 20.0 °F 25.3 °F 90% 30.03 in 4.0 mi SW 8.1 mph - N/A   Overcast
1:55 PM 28.4 °F 21.2 °F 25.7 °F 90% 30.03 in 4.0 mi SW 6.9 mph - N/A   Overcast
2:15 PM 28.4 °F 21.2 °F 26.1 °F 91% 30.03 in 4.0 mi SW 6.9 mph - N/A   Overcast
2:35 PM 28.9 °F 20.4 °F 26.4 °F 90% 30.03 in 4.0 mi SW 9.2 mph - N/A   Overcast
2:55 PM 28.9 °F 20.4 °F 26.6 °F 91% 30.04 in 3.0 mi SW 9.2 mph - N/A   Overcast
3:15 PM 29.1 °F 22.1 °F 27.0 °F 92% 30.05 in 4.0 mi SW 6.9 mph - N/A   Overcast
3:21 PM 29.3 °F 22.3 °F 27.0 °F 91% 30.05 in 4.0 mi WSW 6.9 mph - N/A   Overcast
3:56 PM 30.2 °F 22.6 °F 26.6 °F 86% 30.06 in 4.0 mi West 8.1 mph - N/A   Overcast
4:16 PM 30.2 °F 20.8 °F 26.6 °F 86% 30.06 in 5.0 mi West 11.5 mph 17.3 mph N/A   Overcast
4:36 PM 30.2 °F 22.6 °F 26.6 °F 86% 30.07 in 5.0 mi West 8.1 mph - N/A   Overcast
4:56 PM 30.2 °F 22.6 °F 26.6 °F 86% 30.07 in 5.0 mi West 8.1 mph - N/A   Overcast
5:16 PM 30.2 °F 20.8 °F 26.6 °F 86% 30.08 in 5.0 mi West 11.5 mph 16.1 mph N/A   Overcast
5:56 PM 30.2 °F 20.8 °F 26.6 °F 86% 30.10 in 7.0 mi West 11.5 mph 18.4 mph N/A   Overcast
6:16 PM 30.2 °F 20.2 °F 26.6 °F 86% 30.11 in 7.0 mi West 12.7 mph 19.6 mph N/A   Overcast
6:36 PM 30.2 °F 22.6 °F 24.8 °F 80% 30.11 in 7.0 mi West 8.1 mph - N/A   Overcast
6:56 PM 30.2 °F 22.6 °F 24.8 °F 80% 30.13 in 7.0 mi West 8.1 mph 16.1 mph N/A   Overcast
7:16 PM 30.2 °F 22.6 °F 24.8 °F 80% 30.13 in 7.0 mi West 8.1 mph - N/A   Overcast
7:36 PM 30.2 °F 22.6 °F 24.8 °F 80% 30.13 in 7.0 mi West 8.1 mph - N/A   Overcast
7:58 PM 30.2 °F 23.4 °F 24.8 °F 80% 30.14 in 7.0 mi West 6.9 mph - N/A   Overcast
8:16 PM 30.2 °F 25.4 °F 24.8 °F 80% 30.14 in 7.0 mi West 4.6 mph - N/A   Overcast
8:36 PM 30.2 °F 24.3 °F 24.8 °F 80% 30.13 in 7.0 mi WSW 5.8 mph - N/A   Overcast
8:56 PM 30.2 °F 26.7 °F 24.8 °F 80% 30.13 in 7.0 mi WSW 3.5 mph - N/A   Overcast
9:16 PM 28.4 °F 23.3 °F 24.8 °F 86% 30.13 in 7.0 mi WSW 4.6 mph - N/A   Overcast
9:36 PM 28.4 °F 22.2 °F 24.8 °F 86% 30.13 in 7.0 mi WSW 5.8 mph - N/A   Overcast
9:56 PM 28.4 °F 23.3 °F 24.8 °F 86% 30.13 in 7.0 mi WSW 4.6 mph - N/A   Overcast
10:16 PM 28.4 °F 20.4 °F 24.8 °F 86% 30.13 in 7.0 mi SW 8.1 mph - N/A   Overcast
10:36 PM 30.2 °F 23.4 °F 26.6 °F 86% 30.13 in 7.0 mi WSW 6.9 mph - N/A   Overcast
10:56 PM 30.2 °F 23.4 °F 26.6 °F 86% 30.12 in 7.0 mi WSW 6.9 mph - N/A   Overcast
11:16 PM 30.2 °F 21.9 °F 26.6 °F 86% 30.11 in 7.0 mi WSW 9.2 mph - N/A   Overcast
11:36 PM 30.2 °F 23.4 °F 26.6 °F 86% 30.11 in 7.0 mi WSW 6.9 mph - N/A   Overcast
11:56 PM 30.2 °F 23.4 °F 26.6 °F 86% 30.11 in 7.0 mi WSW 6.9 mph - N/A   Overcast